GW1241 Weather Reports


time (UTC)temp
C
wind
direction
speed
KPH
gust
KPH
rain 1hr
cm
rain 24hr
cm
rain mn
cm
humidity
%
barometer
mb
20260504204532 25 184 8.0 14.5 0.00 0.00 0.00 43 1013.1
20260504203527 25 188 9.7 19.3 0.00 0.00 0.00 43 1013.2
20260504202522 25 180 6.4 22.5 0.00 0.00 0.00 46 1013.4
20260504201517 25 183 6.4 11.3 0.00 0.00 0.00 46 1013.5
20260504200532 25 176 9.7 19.3 0.00 0.00 0.00 45 1013.6
20260504195527 25 181 6.4 20.9 0.00 0.00 0.00 45 1013.7
20260504194543 25 172 8.0 17.7 0.00 0.00 0.00 45 1013.9
20260504193517 24 193 6.4 14.5 0.00 0.00 0.00 49 1014.0
20260504192533 25 192 6.4 14.5 0.00 0.00 0.00 46 1014.0
20260504191528 25 189 12.9 25.7 0.00 0.00 0.00 46 1014.2
20260504190523 26 189 8.0 19.3 0.00 0.00 0.00 46 1014.4
20260504185519 26 152 3.2 11.3 0.00 0.00 0.00 46 1014.5
20260504184533 25 191 12.9 25.7 0.00 0.00 0.00 47 1014.7
20260504183528 25 192 8.0 19.3 0.00 0.00 0.00 48 1014.6
20260504182523 25 186 6.4 17.7 0.00 0.00 0.00 49 1014.8
20260504181518 25 160 3.2 14.5 0.00 0.00 0.00 48 1015.0
20260504180534 25 182 4.8 14.5 0.00 0.00 0.00 46 1015.0
20260504175529 26 187 3.2 14.5 0.00 0.00 0.00 45 1015.1
20260504174544 26 324 3.2 6.4 0.00 0.00 0.00 45 1015.2
20260504173519 25 183 8.0 19.3 0.00 0.00 0.00 49 1015.4
20260504172534 25 163 3.2 9.7 0.00 0.00 0.00 47 1015.5
20260504171549 25 336 3.2 6.4 0.00 0.00 0.00 46 1015.7
20260504170524 25 186 4.8 16.1 0.00 0.00 0.00 49 1015.9
20260504150524 22 153 3.2 9.7 0.00 0.00 0.00 54 1017.0
20260504140535 19 156 4.8 12.9 0.00 0.00 0.00 59 1017.3
20260504130526 15 169 6.4 12.9 0.00 0.00 0.00 69 1017.5
20260504110529 11 182 6.4 9.7 0.00 0.00 0.00 73 1016.4
20260504100522 12 173 4.8 6.4 0.00 0.00 0.00 71 1016.5
20260504081529 11 183 1.6 3.2 0.00 0.00 0.00 77 1016.5
20260504080524 11 144 1.6 3.2 0.00 0.00 0.00 76 1016.4
20260504050536 11 154 1.6 3.2 0.00 0.00 0.00 75 1017.8
20260504045551 12 174 1.6 3.2 0.00 0.00 0.00 74 1017.8
20260504044546 11 110 0.0 1.6 0.00 0.00 0.00 80 1017.8
20260504043541 11 155 1.6 3.2 0.00 0.00 0.00 79 1017.8
20260504042536 11 55 1.6 3.2 0.00 0.00 0.00 78 1017.8
20260504041532 11 51 1.6 3.2 0.00 0.00 0.00 76 1017.8
20260504040527 12 29 3.2 3.2 0.00 0.00 0.00 72 1017.7
20260504035522 13 173 3.2 4.8 0.00 0.00 0.00 69 1017.7
20260504034517 13 170 3.2 4.8 0.00 0.00 0.00 68 1017.8
20260504033532 13 177 3.2 6.4 0.00 0.00 0.00 69 1017.9
20260504032527 13 176 3.2 4.8 0.00 0.00 0.00 69 1018.0
20260504031522 13 174 3.2 6.4 0.00 0.00 0.00 68 1018.2
20260504030538 12 167 3.2 3.2 0.00 0.00 0.00 73 1018.4
20260504025533 12 86 0.0 1.6 0.00 0.00 0.00 76 1018.4
20260504024547 12 0.0 1.6 0.00 0.00 0.00 75 1018.6
20260504023523 12 52 0.0 3.2 0.00 0.00 0.00 76 1018.5
20260504022517 12 45 0.0 1.6 0.00 0.00 0.00 72 1018.3
20260504021533 12 0.0 1.6 0.00 0.00 0.00 72 1018.3
20260504020548 12 0.0 0.0 0.00 0.00 0.00 70 1018.2
20260504015544 12 0.0 1.6 0.00 0.00 0.00 68 1018.1
20260504014538 12 0.0 3.2 0.00 0.00 0.00 66 1018.0
20260504013534 13 42 1.6 3.2 0.00 0.00 0.00 64 1017.7
20260504012529 13 25 0.0 3.2 0.00 0.00 0.00 64 1017.6
20260504011544 13 48 1.6 3.2 0.00 0.00 0.00 66 1017.5
20260504010521 14 0.0 0.0 0.00 0.00 0.00 66 1017.4
20260504005534 14 45 1.6 3.2 0.00 0.00 0.00 64 1017.3
20260504004529 15 164 1.6 3.2 0.00 0.00 0.00 60 1017.4
20260504003525 15 0.0 0.0 0.00 0.00 0.00 56 1017.3
20260504002520 16 0.0 0.0 0.00 0.00 0.00 54 1017.4
20260504001535 16 0.0 0.0 0.00 0.00 0.00 53 1017.3
20260504000530 17 100 0.0 3.2 0.00 0.00 0.00 49 1017.6
20260503235526 17 50 1.6 3.2 0.00 0.00 0.00 47 1017.7
20260503234543 17 56 0.0 3.2 0.00 0.00 0.00 45 1017.7
20260503233516 18 70 1.6 3.2 0.00 0.00 0.00 45 1017.8
20260503232531 18 92 0.0 3.2 0.00 0.00 0.00 42 1017.8
20260503231546 18 71 0.0 4.8 0.00 0.00 0.00 41 1018.0
20260503230521 19 143 3.2 6.4 0.00 0.00 0.00 40 1018.0
20260503225536 19 93 1.6 4.8 0.00 0.00 0.00 40 1018.1
20260503224551 19 103 3.2 8.0 0.00 0.00 0.00 39 1018.1
20260503223526 19 46 1.6 3.2 0.00 0.00 0.00 40 1018.3
20260503222522 19 41 1.6 4.8 0.00 0.00 0.00 40 1018.2
20260503221536 19 52 1.6 4.8 0.00 0.00 0.00 39 1018.4
20260503220532 19 50 1.6 4.8 0.00 0.00 0.00 38 1018.5
20260503215526 19 130 3.2 9.7 0.00 0.00 0.00 40 1018.6
20260503214541 19 35 3.2 6.4 0.00 0.00 0.00 39 1018.7
20260503213516 19 348 3.2 4.8 0.00 0.00 0.00 40 1018.7
20260503212531 18 119 3.2 6.4 0.00 0.00 0.00 40 1019.0
20260503211526 19 105 3.2 9.7 0.00 0.00 0.00 38 1019.0
20260503210522 19 99 3.2 8.0 0.00 0.00 0.00 40 1019.1
20260503205537 19 72 3.2 8.0 0.00 0.00 0.00 39 1019.2